ALM28Y TNCM-TNCC

Flight info

Callsign ALM28Y
Flight time N/A
Altitude 32000
Route PJM M576 MILOK UM576 ACORA ACORA1B
Aircraft MD82/M-SDFGIRWY/S

Departure

Time 2026-04-30 21:32
Airport Princess Juliana International Airport (TNCM)

Arrival

Time N/A
Airport Hato International Airport (TNCC)
Time Latitude Longitude Altitude Speed Heading
2026-04-30 21:01 18.04295 -63.11496 21 ft 0 kts 352°
2026-04-30 21:24 18.04294 -63.11496 21 ft 1 kts 352°
2026-04-30 21:24 18.04285 -63.11494 23 ft 1 kts 351°
2026-04-30 21:24 18.04276 -63.11493 24 ft 1 kts 351°
2026-04-30 21:25 18.04258 -63.11487 25 ft 1 kts 316°
2026-04-30 21:25 18.04255 -63.11483 27 ft 1 kts 316°
2026-04-30 21:25 18.04254 -63.11482 27 ft 1 kts 316°
2026-04-30 21:26 18.04241 -63.11468 26 ft 1 kts 295°
2026-04-30 21:26 18.04239 -63.11459 23 ft 1 kts 253°
2026-04-30 21:27 18.04240 -63.11454 23 ft 0 kts 226°
2026-04-30 21:28 18.04238 -63.11458 23 ft 1 kts 226°
2026-04-30 21:28 18.04187 -63.11519 21 ft 7 kts 229°
2026-04-30 21:29 18.04154 -63.11560 21 ft 8 kts 230°
2026-04-30 21:29 18.04058 -63.11727 21 ft 11 kts 256°
2026-04-30 21:30 18.04033 -63.11888 21 ft 12 kts 247°
2026-04-30 21:31 18.03956 -63.11853 23 ft 0 kts 83°
2026-04-30 21:32 18.04080 -63.10988 22 ft 123 kts 81°
2026-04-30 21:32 18.04212 -63.09929 39 ft 172 kts 84°
2026-04-30 21:32 18.04432 -63.08661 637 ft 176 kts 69°
2026-04-30 21:32 18.05152 -63.07611 1199 ft 189 kts 37°
2026-04-30 21:33 18.06475 -63.07090 1443 ft 218 kts
2026-04-30 21:33 18.09305 -63.08214 2536 ft 231 kts 319°
2026-04-30 21:33 18.10355 -63.09500 3116 ft 240 kts 301°
2026-04-30 21:34 18.11000 -63.11154 3604 ft 246 kts 281°
2026-04-30 21:34 18.10686 -63.14661 4636 ft 263 kts 246°
2026-04-30 21:34 18.09646 -63.16382 4508 ft 294 kts 221°
2026-04-30 21:35 18.07979 -63.17438 5576 ft 268 kts 195°
2026-04-30 21:35 18.06116 -63.17640 6087 ft 276 kts 169°
2026-04-30 21:35 18.04328 -63.16923 6607 ft 279 kts 143°
2026-04-30 21:35 18.02988 -63.15449 7131 ft 281 kts 123°
2026-04-30 21:36 18.01649 -63.13940 7667 ft 289 kts 147°
2026-04-30 21:36 17.99737 -63.13324 8233 ft 292 kts 180°
2026-04-30 21:37 17.95356 -63.17149 9999 ft 297 kts 252°
2026-04-30 21:37 17.94620 -63.19236 10245 ft 314 kts 246°
2026-04-30 21:37 17.93569 -63.21318 10420 ft 332 kts 238°
2026-04-30 21:37 17.92214 -63.23352 10599 ft 348 kts 233°
2026-04-30 21:38 17.90651 -63.25333 10984 ft 355 kts 229°
2026-04-30 21:38 17.88999 -63.27222 11596 ft 355 kts 226°
2026-04-30 21:38 17.87267 -63.29076 12208 ft 356 kts 225°
2026-04-30 21:38 17.85499 -63.30902 12783 ft 357 kts 225°
2026-04-30 21:39 17.83699 -63.32726 13316 ft 360 kts 224°
2026-04-30 21:39 17.81870 -63.34539 13857 ft 362 kts 224°
2026-04-30 21:39 17.80033 -63.36363 14331 ft 364 kts 224°
2026-04-30 21:39 17.78199 -63.38206 14822 ft 366 kts 225°
2026-04-30 21:40 17.76366 -63.40062 15290 ft 368 kts 225°
2026-04-30 21:40 17.74520 -63.41940 15774 ft 370 kts 225°
2026-04-30 21:40 17.72673 -63.43822 16268 ft 371 kts 225°
2026-04-30 21:40 17.70816 -63.45711 16795 ft 372 kts 225°
2026-04-30 21:41 17.68975 -63.47582 17258 ft 374 kts 225°
2026-04-30 21:41 17.67098 -63.49490 17742 ft 376 kts 225°
2026-04-30 21:41 17.65213 -63.51408 18209 ft 379 kts 225°
2026-04-30 21:41 17.63317 -63.53338 18621 ft 380 kts 225°
2026-04-30 21:42 17.61420 -63.55271 19056 ft 381 kts 225°
2026-04-30 21:42 17.59514 -63.57212 19500 ft 382 kts 225°
2026-04-30 21:42 17.57609 -63.59154 19928 ft 383 kts 225°
2026-04-30 21:42 17.55695 -63.61104 20316 ft 385 kts 225°
2026-04-30 21:43 17.53765 -63.63074 20622 ft 389 kts 225°
2026-04-30 21:43 17.51822 -63.65052 21046 ft 390 kts 225°
2026-04-30 21:43 17.49874 -63.67033 21495 ft 391 kts 225°
2026-04-30 21:43 17.47921 -63.69020 21935 ft 392 kts 225°
2026-04-30 21:44 17.45962 -63.71014 22327 ft 393 kts 225°
2026-04-30 21:44 17.43998 -63.73012 22731 ft 395 kts 225°
2026-04-30 21:44 17.42014 -63.75026 23118 ft 396 kts 225°
2026-04-30 21:44 17.40023 -63.77037 23533 ft 398 kts 225°
2026-04-30 21:45 17.38033 -63.79049 23876 ft 399 kts 225°
2026-04-30 21:45 17.36056 -63.81047 24157 ft 401 kts 225°
2026-04-30 21:45 17.34045 -63.83085 24443 ft 403 kts 225°
2026-04-30 21:45 17.32027 -63.85133 24756 ft 405 kts 225°
2026-04-30 21:46 17.29999 -63.87195 25059 ft 407 kts 226°
2026-04-30 21:46 17.27967 -63.89262 25298 ft 410 kts 226°
2026-04-30 21:46 17.25911 -63.91354 25522 ft 413 kts 226°
2026-04-30 21:46 17.23847 -63.93453 25841 ft 415 kts 226°
2026-04-30 21:47 17.21777 -63.95557 26182 ft 416 kts 226°
2026-04-30 21:47 17.19697 -63.97670 26491 ft 417 kts 227°
2026-04-30 21:47 17.17609 -63.99792 26767 ft 420 kts 227°
2026-04-30 21:47 17.15513 -64.01920 27078 ft 421 kts 227°
2026-04-30 21:48 17.13400 -64.04053 27389 ft 423 kts 227°
2026-04-30 21:48 17.11283 -64.06187 27665 ft 425 kts 227°
2026-04-30 21:48 17.09131 -64.08359 27920 ft 427 kts 227°
2026-04-30 21:48 17.06994 -64.10519 28214 ft 429 kts 227°
2026-04-30 21:49 17.04848 -64.12689 28513 ft 430 kts 227°
2026-04-30 21:49 17.02729 -64.14831 28897 ft 428 kts 228°
2026-04-30 21:49 17.00566 -64.17016 29330 ft 426 kts 228°
2026-04-30 21:49 16.98463 -64.19141 29725 ft 425 kts 229°
2026-04-30 21:50 16.96340 -64.21288 30101 ft 424 kts 229°
2026-04-30 21:50 16.94227 -64.23426 30466 ft 422 kts 229°
2026-04-30 21:50 16.92126 -64.25555 30837 ft 419 kts 229°
2026-04-30 21:50 16.90036 -64.27672 31198 ft 417 kts 229°
2026-04-30 21:51 16.87956 -64.29777 31547 ft 415 kts 229°
2026-04-30 21:51 16.85880 -64.31876 31754 ft 416 kts 229°
2026-04-30 21:51 16.81712 -64.36080 31908 ft 416 kts 229°
2026-04-30 21:52 16.77545 -64.40268 31939 ft 415 kts 229°
2026-04-30 21:52 16.73387 -64.44451 31946 ft 414 kts 229°
2026-04-30 21:53 16.69234 -64.48637 31946 ft 417 kts 228°
2026-04-30 21:53 16.65056 -64.52839 31948 ft 418 kts 228°
2026-04-30 21:54 16.60892 -64.57022 31946 ft 418 kts 228°
2026-04-30 21:54 16.56707 -64.61223 31947 ft 416 kts 228°
2026-04-30 21:55 16.52541 -64.65403 31949 ft 415 kts 228°
2026-04-30 21:55 16.48366 -64.69584 31946 ft 416 kts 228°
2026-04-30 21:56 16.44185 -64.73772 31946 ft 417 kts 228°
2026-04-30 21:56 16.39999 -64.77963 31942 ft 417 kts 228°
2026-04-30 21:57 16.39817 -64.78145 31944 ft 418 kts 228°
2026-04-30 21:58 16.36437 -64.81542 31941 ft 418 kts 228°
2026-04-30 21:59 16.32257 -64.85749 31945 ft 417 kts 228°
2026-04-30 22:00 16.25989 -64.92016 31936 ft 415 kts 228°
2026-04-30 22:00 16.19734 -64.98261 31940 ft 416 kts 228°
2026-04-30 22:01 16.15568 -65.02400 31930 ft 416 kts 228°
2026-04-30 22:01 16.11375 -65.06568 31934 ft 417 kts 227°
2026-04-30 22:02 16.07181 -65.10740 31934 ft 417 kts 228°
2026-04-30 22:02 16.02980 -65.14917 31937 ft 417 kts 227°
2026-04-30 22:03 15.98778 -65.19096 31935 ft 418 kts 228°
2026-04-30 22:03 15.94597 -65.23252 31935 ft 418 kts 227°
2026-04-30 22:04 15.90399 -65.27424 31939 ft 418 kts 227°
2026-04-30 22:05 15.84080 -65.33713 31932 ft 421 kts 227°
2026-04-30 22:05 15.80549 -65.37216 31929 ft 422 kts 227°
2026-04-30 22:06 15.76292 -65.41421 31929 ft 422 kts 227°
2026-04-30 22:06 15.69937 -65.47714 31932 ft 420 kts 227°
2026-04-30 22:07 15.65742 -65.51878 31933 ft 420 kts 227°
2026-04-30 22:07 15.61514 -65.56078 31930 ft 421 kts 227°
2026-04-30 22:08 15.57286 -65.60291 31929 ft 424 kts 227°
2026-04-30 22:08 15.53000 -65.64542 31929 ft 426 kts 226°
2026-04-30 22:09 15.48717 -65.68783 31929 ft 424 kts 227°
2026-04-30 22:09 15.44461 -65.73009 31924 ft 423 kts 227°
2026-04-30 22:10 15.40209 -65.77230 31927 ft 424 kts 227°
2026-04-30 22:10 15.35945 -65.81457 31912 ft 424 kts 226°
2026-04-30 22:11 15.29535 -65.87806 31920 ft 426 kts 226°
2026-04-30 22:12 15.25229 -65.92024 31922 ft 430 kts 225°
2026-04-30 22:12 15.20848 -65.96243 31926 ft 429 kts 225°
2026-04-30 22:13 15.16504 -66.00440 31922 ft 426 kts 225°
2026-04-30 22:13 15.12188 -66.04627 31922 ft 425 kts 225°
2026-04-30 22:14 15.07875 -66.08816 31923 ft 427 kts 225°
2026-04-30 22:14 15.03533 -66.13013 31918 ft 428 kts 225°
2026-04-30 22:15 14.99116 -66.17156 31913 ft 429 kts 224°
2026-04-30 22:15 14.94675 -66.21283 31917 ft 429 kts 224°
2026-04-30 22:16 14.90238 -66.25422 31920 ft 430 kts 224°
2026-04-30 22:17 14.81394 -66.33705 31916 ft 428 kts 224°
2026-04-30 22:17 14.74772 -66.39899 31915 ft 428 kts 224°
2026-04-30 22:18 14.68140 -66.46081 31910 ft 428 kts 224°
2026-04-30 22:19 14.61524 -66.52248 31912 ft 426 kts 224°
2026-04-30 22:20 14.54955 -66.58379 31916 ft 426 kts 224°
2026-04-30 22:20 14.48344 -66.64543 31910 ft 427 kts 224°
2026-04-30 22:21 14.43976 -66.68690 31911 ft 426 kts 226°
2026-04-30 22:21 14.39809 -66.73038 31906 ft 426 kts 228°
2026-04-30 22:22 14.35676 -66.77428 31903 ft 426 kts 227°
2026-04-30 22:22 14.31523 -66.81791 31908 ft 426 kts 227°
2026-04-30 22:23 14.27344 -66.86141 31905 ft 426 kts 227°
2026-04-30 22:23 14.26215 -66.87314 31906 ft 426 kts 227°
2026-04-30 22:24 14.22589 -66.91087 31905 ft 427 kts 227°
2026-04-30 22:24 14.18410 -66.95439 31905 ft 427 kts 227°
2026-04-30 22:25 14.14235 -66.99778 31904 ft 427 kts 227°
2026-04-30 22:25 14.10047 -67.04116 31896 ft 427 kts 227°
2026-04-30 22:26 14.03763 -67.10630 31902 ft 427 kts 227°
2026-04-30 22:27 13.99572 -67.14976 31902 ft 427 kts 227°
2026-04-30 22:27 13.93284 -67.21495 31899 ft 427 kts 227°
2026-04-30 22:28 13.87000 -67.28007 31900 ft 428 kts 227°
2026-04-30 22:29 13.78590 -67.36683 31897 ft 428 kts 227°
2026-04-30 22:31 13.64175 -67.52099 31894 ft 426 kts 236°
2026-04-30 22:32 13.56044 -67.64837 31890 ft 427 kts 237°
2026-04-30 22:33 13.47740 -67.77462 31890 ft 425 kts 237°
2026-04-30 22:35 13.39489 -67.89999 31889 ft 425 kts 237°
2026-04-30 22:36 13.31173 -68.02606 31883 ft 427 kts 237°
2026-04-30 22:37 13.26144 -68.10239 30910 ft 434 kts 237°
2026-04-30 22:37 13.24460 -68.12798 30328 ft 432 kts 236°
2026-04-30 22:37 13.21086 -68.17912 28906 ft 431 kts 236°
2026-04-30 22:38 13.17772 -68.22929 27732 ft 423 kts 236°
2026-04-30 22:38 13.14494 -68.27878 26158 ft 416 kts 236°
2026-04-30 22:39 13.12874 -68.30322 25486 ft 413 kts 236°
2026-04-30 22:39 13.08071 -68.37577 23484 ft 407 kts 236°
2026-04-30 22:40 13.03338 -68.44727 21376 ft 399 kts 236°
2026-04-30 22:41 12.98737 -68.51689 19517 ft 388 kts 235°
2026-04-30 22:41 12.95722 -68.56234 18279 ft 383 kts 235°
2026-04-30 22:42 12.89804 -68.65138 15711 ft 371 kts 234°
2026-04-30 22:43 12.86943 -68.69447 14546 ft 364 kts 234°
2026-04-30 22:43 12.84111 -68.73707 13353 ft 359 kts 234°
2026-04-30 22:44 12.81325 -68.77908 12143 ft 353 kts 233°
2026-04-30 22:45 12.75907 -68.86061 10292 ft 330 kts 232°
2026-04-30 22:45 12.73445 -68.89751 10006 ft 299 kts 233°
2026-04-30 22:46 12.71185 -68.93158 9658 ft 288 kts 233°
2026-04-30 22:47 12.66602 -68.99985 9028 ft 293 kts 232°
2026-04-30 22:47 12.64310 -69.03414 8565 ft 290 kts 232°
2026-04-30 22:48 12.62046 -69.06833 8077 ft 290 kts 234°
2026-04-30 22:49 12.58693 -69.11866 7361 ft 284 kts 232°
2026-04-30 22:49 12.54977 -69.16414 6715 ft 270 kts 199°
2026-04-30 22:50 12.47695 -69.16625 5790 ft 258 kts 173°
2026-04-30 22:51 12.44139 -69.16328 5408 ft 257 kts 173°
2026-04-30 22:51 12.40561 -69.16073 5024 ft 257 kts 174°
2026-04-30 22:52 12.38780 -69.15984 4836 ft 254 kts 174°
2026-04-30 22:52 12.35856 -69.15824 4486 ft 252 kts 173°
2026-04-30 22:53 12.32397 -69.15624 4100 ft 247 kts 173°
2026-04-30 22:53 12.29114 -69.15442 3963 ft 231 kts 174°
2026-04-30 22:53 12.27498 -69.15340 3894 ft 235 kts 173°
2026-04-30 22:54 12.24375 -69.14959 3717 ft 213 kts 154°
2026-04-30 22:55 12.22336 -69.11575 3116 ft 187 kts 108°
2026-04-30 22:55 12.21630 -69.09055 2359 ft 181 kts 103°
2026-04-30 22:56 12.21127 -69.06739 1973 ft 153 kts 101°
2026-04-30 22:56 12.20478 -69.03573 1555 ft 152 kts 102°
2026-04-30 22:57 12.20051 -69.01617 1049 ft 136 kts 97°
2026-04-30 22:57 12.19680 -68.99724 638 ft 137 kts 103°
2026-04-30 22:58 12.19251 -68.97770 258 ft 142 kts 98°
2026-04-30 22:59 12.18741 -68.95258 43 ft 70 kts 102°
2026-04-30 22:59 12.18595 -68.94559 45 ft 22 kts 108°